Helicity
197 201 177 163 125 87 88 116 129 145 169 140 109 94 84 76 63 83 87 116 110 73
239 212 167 143 111 85 109 122 138 155 173 169 118 99 101 93 78 81 98 143 113 91
218 213 164 125 100 106 112 124 127 132 135 174 194 176 158 122 101 149 135 146 125 104
210 190 151 104 110 127 129 123 116 121 134 138 160 170 189 171 160 177 154 138 125 103
205 179 158 124 150 158 140 128 134 128 124 123 131 148 176 169 155 164 151 154 145 110
197 174 153 178 181 178 158 138 133 130 129 131 131 140 133 138 138 144 150 151 148 124
191 196 211 219 197 186 162 143 137 124 123 134 136 135 140 135 145 151 143 138 134 123
241 237 256 235 213 196 160 142 142 135 132 135 149 145 162 159 160 166 159 154 149 130
276 240 238 247 226 194 159 170 170 156 157 160 163 164 179 183 191 180 191 215 198 198
276 246 252 254 224 203 188 198 186 176 184 163 179 178 198 202 211 199 215 216 205 195
238 266 280 263 235 238 231 220 203 187 199 179 164 176 208 228 221 191 194 184 180 185
265 267 291 270 281 310 286 235 206 194 209 178 177 179 230 244 219 177 167 156 170 171
260 223 251 330 333 308 299 265 213 195 188 190 187 173 228 257 226 192 170 165 169 193
208 244 288 315 298 324 318 283 217 175 202 208 193 180 176 230 246 219 200 202 196 179
Wind_Speed
28 24 18 16 17 19 17 15 11 14 16 23 25 27 29 28 23 18 17 17 18 18
34 26 19 18 18 19 14 11 13 10 11 16 23 26 28 26 22 16 15 15 16 17
36 28 21 19 21 22 16 14 14 12 16 13 14 17 21 20 17 17 15 13 14 15
40 29 23 22 22 19 18 19 16 18 17 14 14 14 15 15 16 15 15 14 14 15
35 30 27 24 20 21 22 17 18 17 16 17 17 17 16 15 15 14 15 16 16 16
36 30 29 26 22 21 19 16 16 17 18 18 18 20 17 16 15 15 17 16 16 16
37 34 32 28 24 21 19 18 17 18 18 17 17 18 17 17 16 15 16 15 14 14
44 36 35 30 25 21 21 17 16 18 17 17 16 15 15 18 16 14 15 13 12 12
44 37 34 32 26 23 21 19 19 17 17 18 10 16 18 17 13 14 15 13 10 9
44 39 37 35 28 25 24 21 20 18 17 16 9 19 20 18 13 13 14 11 10 7
42 41 36 32 30 27 25 24 23 20 17 15 12 19 21 17 11 12 11 9 9 4
42 36 35 34 32 31 28 25 22 22 20 19 14 20 21 15 10 11 10 8 6 4
40 36 35 31 32 33 33 29 24 21 21 19 17 20 22 16 11 12 9 7 7 7
38 39 33 24 24 28 30 29 26 23 20 19 19 20 24 20 14 13 11 9 8 7
Wind_Direction
199 200 189 174 156 152 145 147 144 131 119 130 129 128 136 136 129 104 90 75 69 58
208 201 189 171 160 152 158 155 141 132 119 112 129 131 135 137 132 119 93 74 71 61
209 208 191 175 161 154 157 151 142 138 132 122 112 114 123 123 114 114 100 82 81 66
213 209 188 174 163 160 153 143 139 134 132 131 130 125 119 118 115 109 100 88 89 78
208 209 202 187 181 161 150 144 138 134 131 129 128 128 125 123 121 116 110 102 97 89
209 194 183 191 179 167 158 154 145 138 136 133 132 130 125 124 121 118 115 110 104 95
205 200 199 201 189 178 167 162 155 146 141 137 135 132 128 126 124 117 116 112 108 104
215 206 209 203 198 189 174 176 168 154 148 143 140 138 135 134 130 125 122 113 105 96
209 201 203 210 201 192 186 184 173 170 162 156 152 148 145 141 135 133 132 123 100 80
205 203 209 215 208 197 194 192 190 185 179 177 170 157 154 150 143 145 142 134 122 94
206 213 210 203 204 207 205 193 192 197 199 195 185 167 163 159 155 158 159 160 152 142
210 208 200 201 209 222 221 218 201 196 196 193 198 179 172 171 173 175 180 184 178 193
211 218 219 218 218 229 238 234 227 215 208 205 205 191 184 186 193 189 196 204 200 199
219 228 223 217 211 227 237 241 234 224 226 222 213 209 195 197 203 203 207 218 225 230